[[{"header":{"parameterUnit":"m.s-1","parameterCategory":1,"la1":30.2991,"la2":30.254,"lo1":-89.0895,"lo2":-89.0444,"dy":0.0017,"dx":0.0017,"nx":28,"ny":28,"refTime":"2024-03-18T21:00:00:Z","depth":0,"parameterNumber":2,"parameterNumberName":"U-component_of_WINDS"},"data":[0,0,0,0,0,0,0,0,0,0,0,0,0,0,0,0,0,0,0,0,0,0,0,0,0,0,0,0,0,0,0,0,0,0,0,0,0,0,0,0,0,0,0,0,0,0,0,0,0,0,0,0,0,0,0,0,0,0,0.7636,0.7636,0,0.7636,0.7636,0.7636,0.7651,0.7652,0.7652,0.7652,0.7648,0.7648,0.7647,0,0,0,0,0,0,0,0,0,0,0,0,0,0.7649,0.7649,0.7636,0.7636,0.7636,0.7636,0.7636,0.7636,0.7651,0.7652,0.7652,0.7653,0.7648,0.7648,0.7647,0,0,0,0,0,0,0,0,0,0,0,0,0,0.7646,0.7649,0.7636,0.7644,0.7645,0.7636,0.7636,0.7636,0.7651,0.7652,0.7652,0.7653,0.7649,0.7648,0.7647,0.7629,0,0,0.7645,0.7644,0,0,0,0,0,0,0,0,0.7646,0.7645,0.7643,0.7643,0.7644,0.7644,0.7639,0.7633,0.7651,0.7648,0.7652,0.7653,0.7646,0.7646,0.7644,0.7629,0.7629,0.7645,0.7644,0.7644,0.7644,0,0,0,0,0,0,0,0.7646,0.7645,0.7636,0.7643,0.7644,0.7647,0.7647,0.7638,0.7644,0.7649,0.765,0.765,0.7647,0.7645,0.7644,0.7629,0.7645,0.7644,0.7644,0.7643,0.7601,0.7601,0,0,0,0,0,0,0.7646,0.7645,0.7636,0.7636,0.7647,0.7646,0.7646,0.7643,0.7644,0.7644,0.7649,0.765,0.7646,0.7645,0.7644,0.7624,0.7644,0.7643,0.7643,0.7602,0.7601,0.76,0,0,0,0,0,0,0.7646,0.7645,0.7636,0.7641,0.764,0.7645,0.7642,0.7643,0.7641,0.7644,0.7645,0.7646,0.7646,0.7645,0.7633,0.7624,0.7643,0.7642,0.7603,0.7602,0.7601,0.7583,0,0,0,0,0,0,0.7646,0.7645,0.7638,0.7641,0.764,0.7626,0.7641,0.7643,0.764,0.7642,0.7642,0.7642,0.7647,0.7635,0.7633,0.7623,0.7641,0.7603,0.7602,0.7601,0.7585,0.7582,0.7579,0,0,0,0,0,0.7646,0.7632,0.7638,0.7636,0.7632,0.7625,0.7625,0.7631,0.7639,0.7633,0.7635,0.7642,0.7626,0.7633,0.7631,0.7621,0.7604,0.7603,0.7601,0.7586,0.7582,0.7579,0,0,0,0,0,0,0.7626,0.7632,0.7639,0.7625,0.7625,0.7628,0.762,0.7627,0.7623,0.7625,0.7632,0.7632,0.7619,0.7619,0.7628,0.7605,0.7616,0.7614,0.7605,0.7602,0.7599,0.7599,0.7641,0,0,0,0,0,0.7621,0.7616,0.7621,0.7608,0.7608,0.7614,0.7611,0.7617,0.7616,0.7616,0.7617,0.7615,0.761,0.7606,0.7601,0.7585,0.7586,0.7578,0.7575,0.7573,0.7571,0.7563,0.756,0.7596,0.7596,0.7596,0,0,0.7608,0.7611,0.7607,0.7604,0.7605,0.7599,0.7614,0.7606,0.7602,0.7614,0.7604,0.7605,0.7604,0.759,0.7584,0.759,0.7561,0.7571,0.7569,0.7568,0.7561,0.7558,0.7555,0.7595,0.7595,0.7595,0,0,0.7582,0.7584,0.7574,0.7575,0.7576,0.7581,0.7578,0.7581,0.7583,0.7573,0.7582,0.7577,0.7567,0.7567,0.7565,0.7542,0.7548,0.754,0.7525,0.7518,0.7515,0.7512,0.7504,0.7501,0.7538,0.7538,0.7538,0,0.7566,0.7558,0.7567,0.756,0.7559,0.7572,0.7562,0.7562,0.7561,0.756,0.7567,0.7556,0.7556,0.7543,0.7538,0.7536,0.7533,0.7539,0.7515,0.7512,0.751,0.7502,0.7499,0.7537,0.7537,0.7537,0.7537,0,0.7538,0.7533,0.7524,0.7525,0.7523,0.7514,0.7522,0.7519,0.7525,0.7529,0.7519,0.7521,0.7517,0.7514,0.7519,0.7502,0.7506,0.7514,0.7525,0.7506,0.7498,0.7495,0.7535,0.7536,0.7536,0.7536,0,0,0.7497,0.7505,0.7502,0.7503,0.7506,0.7502,0.7494,0.7492,0.7489,0.7489,0.7483,0.7476,0.7484,0.7482,0.7487,0.7481,0.7463,0.749,0.749,0.7484,0.7444,0.7438,0.7434,0.7468,0.7467,0.7467,0.7444,0,0.7471,0.7459,0.7469,0.7455,0.745,0.7464,0.7458,0.7459,0.7463,0.7459,0.7463,0.7458,0.7469,0.7468,0.7463,0.7466,0.7455,0.7468,0.7461,0.7461,0.746,0.743,0.7423,0.7402,0.7442,0.7441,0.7441,0,0.7439,0.744,0.7426,0.7432,0.743,0.7424,0.7424,0.7421,0.7423,0.7426,0.7426,0.7433,0.7426,0.7439,0.7429,0.7438,0.7436,0.7438,0.7437,0.7435,0.7449,0.7427,0.7395,0.7391,0.7436,0.7437,0.7437,0,0.741,0.7407,0.7399,0.7399,0.7406,0.7402,0.7405,0.7408,0.7406,0.7406,0.7405,0.7404,0.7402,0.7401,0.7408,0.7417,0.7398,0.741,0.74,0.7399,0.7394,0.7394,0.7359,0.7394,0.7394,0.7394,0.7394,0,0.738,0.7371,0.7386,0.7381,0.7371,0.7383,0.7373,0.7377,0.738,0.7375,0.7387,0.7382,0.7393,0.7389,0.7395,0.7386,0.7386,0.7388,0.7389,0.7386,0.7386,0.7384,0.7386,0.7393,0.7393,0.7394,0.7394,0,0.7345,0.7355,0.7347,0.7355,0.7357,0.735,0.7357,0.7352,0.7358,0.7353,0.7352,0.7361,0.7357,0.7365,0.7362,0.7367,0.7354,0.7358,0.7354,0.7354,0.7343,0.7344,0.7306,0.7301,0.7339,0.7339,0.7339,0,0.7325,0.7318,0.7327,0.7326,0.7328,0.7326,0.7325,0.7337,0.7335,0.7339,0.7334,0.7332,0.7331,0.7325,0.7331,0.7329,0.7333,0.732,0.7333,0.733,0.7333,0.7332,0.7332,0.7317,0.7316,0.7316,0.7316,0,0.7287,0.7293,0.7293,0.7294,0.7294,0.7295,0.7297,0.7295,0.7308,0.7306,0.7303,0.7303,0.7302,0.73,0.73,0.7302,0.7311,0.7312,0.731,0.7306,0.7303,0.7304,0.7346,0.7312,0.7313,0.7313,0.7313,0.7313,0.7259,0.7254,0.726,0.7259,0.7263,0.7265,0.7262,0.7268,0.7267,0.7268,0.7275,0.7271,0.7275,0.7277,0.7279,0.7276,0.7282,0.7278,0.7277,0.7275,0.7273,0.7305,0.7276,0.7276,0.7276,0.7276,0.7276,0,0.7222,0.7227,0.7226,0.723,0.723,0.724,0.7244,0.7242,0.724,0.7243,0.7243,0.7241,0.724,0.7247,0.7246,0.7243,0.7247,0.7242,0.7242,0.7242,0.7268,0.727,0.7239,0.7239,0.7239,0.7239,0.7239,0.7239,0.7202,0.7195,0.7202,0.7198,0.7203,0.7201,0.7202,0.7204,0.7207,0.7205,0.7205,0.721,0.7215,0.7216,0.7215,0.7217,0.7216,0.721,0.7213,0.7237,0.724,0.7244,0.7246,0.721,0.721,0.7188,0.7188,0.7187]},{"header":{"parameterUnit":"m.s-1","parameterCategory":1,"la1":30.2991,"la2":30.254,"lo1":-89.0895,"lo2":-89.0444,"dy":0.0017,"dx":0.0017,"nx":28,"ny":28,"refTime":"2024-03-18T21:00:00:Z","depth":0,"parameterNumber":3,"parameterNumberName":"V-component_of_WINDS"},"data":[0,0,0,0,0,0,0,0,0,0,0,0,0,0,0,0,0,0,0,0,0,0,0,0,0,0,0,0,0,0,0,0,0,0,0,0,0,0,0,0,0,0,0,0,0,0,0,0,0,0,0,0,0,0,0,0,0,0,-8.866,-8.8661,0,-8.8811,-8.8812,-8.8814,-8.8686,-8.8681,-8.8676,-8.8671,-8.8821,-8.8829,-8.8838,0,0,0,0,0,0,0,0,0,0,0,0,0,-8.8257,-8.8265,-8.866,-8.8661,-8.8663,-8.881,-8.8812,-8.8814,-8.8687,-8.8681,-8.8674,-8.8668,-8.8818,-8.8828,-8.8839,0,0,0,0,0,0,0,0,0,0,0,0,0,-8.8422,-8.8268,-8.8659,-8.8618,-8.8615,-8.881,-8.8813,-8.8815,-8.8689,-8.8681,-8.8673,-8.8665,-8.8814,-8.8827,-8.8841,-8.9082,0,0,-8.8881,-8.8887,0,0,0,0,0,0,0,0,-8.8413,-8.8437,-8.8622,-8.8621,-8.8619,-8.8722,-8.8725,-8.8905,-8.8691,-8.8661,-8.8671,-8.8661,-8.8794,-8.8808,-8.8854,-8.9089,-8.9096,-8.8883,-8.8891,-8.8897,-8.89,0,0,0,0,0,0,0,-8.8402,-8.843,-8.8719,-8.8625,-8.8623,-8.859,-8.8605,-8.8759,-8.877,-8.8663,-8.8654,-8.8674,-8.8791,-8.8841,-8.8857,-8.9098,-8.8882,-8.8894,-8.8902,-8.8908,-8.954,-8.9548,0,0,0,0,0,0,-8.8395,-8.8421,-8.8714,-8.8724,-8.8494,-8.8604,-8.862,-8.8697,-8.8768,-8.8771,-8.868,-8.8667,-8.8822,-8.8841,-8.8861,-8.915,-8.8896,-8.8909,-8.8917,-8.9531,-8.9542,-8.9551,0,0,0,0,0,0,-8.8387,-8.8423,-8.8708,-8.857,-8.8604,-8.8619,-8.8706,-8.8704,-8.8754,-8.8781,-8.8782,-8.873,-8.8817,-8.8843,-8.9029,-8.9153,-8.8915,-8.8927,-8.9521,-8.9534,-8.9546,-8.9729,0,0,0,0,0,0,-8.8376,-8.842,-8.8514,-8.8573,-8.8612,-8.8875,-8.8714,-8.8712,-8.8778,-8.8762,-8.8828,-8.8831,-8.8813,-8.901,-8.9042,-8.9168,-8.8938,-8.9509,-8.9527,-8.9542,-8.9712,-8.9747,-8.9777,0,0,0,0,0,-8.8362,-8.8558,-8.8519,-8.8555,-8.8729,-8.8883,-8.8904,-8.8881,-8.8788,-8.8881,-8.8899,-8.8829,-8.9134,-8.903,-8.9065,-8.9197,-8.9502,-8.9522,-8.9541,-8.9697,-8.974,-8.9776,0,0,0,0,0,0,-8.851,-8.8565,-8.8522,-8.8743,-8.881,-8.8861,-8.8978,-8.8926,-8.9019,-8.9,-8.8965,-8.8981,-8.9178,-8.9205,-8.9088,-8.9434,-8.9303,-8.9331,-8.941,-8.945,-8.9482,-8.9471,-8.8949,0,0,0,0,0,-8.8569,-8.8691,-8.8731,-8.8922,-8.8958,-8.8963,-8.9028,-8.9005,-8.9071,-8.9098,-8.9129,-8.9195,-8.9305,-8.9379,-8.9482,-8.9715,-8.9727,-8.9823,-8.9855,-8.9881,-8.9906,-9.0031,-9.0074,-8.9616,-8.9615,-8.9615,0,0,-8.8691,-8.8736,-8.8815,-8.8953,-8.9002,-8.9128,-8.8987,-8.9125,-8.9218,-8.9118,-8.9297,-8.9322,-8.9393,-8.9604,-8.9698,-8.9633,-9.0035,-8.9906,-8.9927,-8.9938,-9.0056,-9.0099,-9.0138,-8.9629,-8.9627,-8.9624,0,0,-8.8978,-8.9025,-8.9189,-8.9241,-8.9317,-8.9319,-8.9359,-8.9418,-8.9432,-8.9611,-8.9539,-8.9647,-8.9839,-8.9893,-8.9945,-9.0253,-9.0192,-9.0288,-9.0457,-9.0579,-9.0616,-9.0647,-9.0758,-9.0798,-9.0312,-9.0312,-9.0313,0,-8.912,-8.9309,-8.928,-8.9425,-8.9488,-8.9405,-8.9571,-8.9622,-8.9728,-8.9772,-8.9698,-8.9937,-8.9979,-9.0202,-9.0277,-9.0322,-9.0366,-9.028,-9.0613,-9.0645,-9.0674,-9.0779,-9.0821,-9.0323,-9.0322,-9.0321,-9.032,0,-8.948,-8.9611,-8.9735,-8.9841,-8.9917,-9.0072,-9.0066,-9.0147,-9.0117,-9.0126,-9.0309,-9.0357,-9.0468,-9.0519,-9.049,-9.0738,-9.0695,-9.0618,-9.0485,-9.0729,-9.0827,-9.0867,-9.034,-9.0335,-9.0332,-9.0329,0,0,-8.9865,-8.9954,-9.0,-9.0047,-9.0125,-9.0225,-9.0376,-9.0487,-9.0557,-9.0632,-9.0757,-9.0922,-9.0851,-9.091,-9.0886,-9.0994,-9.1236,-9.0903,-9.0904,-9.0964,-9.1513,-9.1572,-9.1619,-9.1195,-9.1203,-9.1209,-9.1507,0,-9.0156,-9.042,-9.0399,-9.0648,-9.077,-9.0692,-9.0823,-9.0885,-9.0898,-9.1001,-9.1013,-9.1131,-9.1028,-9.1064,-9.1167,-9.1185,-9.1346,-9.1163,-9.1311,-9.1317,-9.1297,-9.167,-9.1732,-9.2011,-9.1545,-9.1552,-9.1556,0,-9.0531,-9.0621,-9.0884,-9.0944,-9.0994,-9.1112,-9.1213,-9.1313,-9.138,-9.1382,-9.145,-9.1407,-9.1558,-9.1421,-9.1628,-9.1504,-9.1563,-9.1581,-9.1591,-9.1604,-9.1452,-9.1694,-9.21,-9.2142,-9.1616,-9.1611,-9.1607,0,-9.0787,-9.0974,-9.1155,-9.1198,-9.1272,-9.1357,-9.1392,-9.1452,-9.152,-9.1607,-9.1651,-9.1754,-9.181,-9.189,-9.1876,-9.1778,-9.2088,-9.1949,-9.2093,-9.2093,-9.2162,-9.2158,-9.2584,-9.2199,-9.2198,-9.2198,-9.2197,0,-9.1115,-9.1278,-9.1271,-9.1383,-9.1564,-9.1537,-9.1716,-9.174,-9.1795,-9.1909,-9.1847,-9.1955,-9.1929,-9.2036,-9.2026,-9.2199,-9.2225,-9.223,-9.2225,-9.2236,-9.2236,-9.2275,-9.2255,-9.2209,-9.2206,-9.2204,-9.2202,0,-9.1432,-9.1433,-9.1626,-9.1681,-9.1699,-9.183,-9.1876,-9.1981,-9.1988,-9.2134,-9.2166,-9.2178,-9.2301,-9.2295,-9.2433,-9.2426,-9.264,-9.2612,-9.2618,-9.2612,-9.2756,-9.2743,-9.3223,-9.3284,-9.2859,-9.2863,-9.2866,0,-9.1641,-9.1766,-9.1835,-9.1908,-9.1949,-9.2067,-9.2136,-9.2115,-9.219,-9.2277,-9.2371,-9.2489,-9.2581,-9.2781,-9.2801,-9.2906,-9.2881,-9.3042,-9.2896,-9.2903,-9.2884,-9.2878,-9.289,-9.307,-9.3075,-9.3079,-9.3082,0,-9.2014,-9.2009,-9.2113,-9.2219,-9.2304,-9.2385,-9.246,-9.2522,-9.2508,-9.2596,-9.2722,-9.2794,-9.2936,-9.3054,-9.3154,-9.3188,-9.3134,-9.3128,-9.3167,-9.318,-9.3179,-9.3182,-9.2697,-9.3117,-9.3114,-9.3111,-9.3109,-9.3108,-9.2284,-9.2391,-9.2457,-9.2575,-9.2629,-9.2701,-9.2802,-9.2823,-9.2929,-9.3044,-9.3024,-9.3165,-9.3229,-9.3359,-9.3402,-9.3511,-9.3454,-9.351,-9.3524,-9.3539,-9.3556,-9.3161,-9.3529,-9.3528,-9.3527,-9.3527,-9.3526,0,-9.2653,-9.2692,-9.2802,-9.2909,-9.3002,-9.2944,-9.3023,-9.3104,-9.323,-9.3295,-9.3388,-9.3533,-9.3646,-9.3676,-9.3785,-9.3866,-9.3844,-9.3896,-9.389,-9.3898,-9.36,-9.3557,-9.3912,-9.3912,-9.3912,-9.3912,-9.3912,-9.3911,-9.2857,-9.3036,-9.3039,-9.3244,-9.328,-9.342,-9.3471,-9.3536,-9.3587,-9.3753,-9.3848,-9.3866,-9.3917,-9.4029,-9.413,-9.4135,-9.4179,-9.4241,-9.4237,-9.3958,-9.3919,-9.3882,-9.3841,-9.425,-9.4251,-9.4525,-9.4528,-9.453]}]]